Location: St. Louis
(38.6270°N, 90.1994°W)
Time: 05:26:07
(UTC-06:00)

A-11 Canister half - Pass Details

Date: 30 November 2021
Orbit: 1524 x 1684 km, 47.3° (Epoch: 22 January)

Event Time Altitude Azimuth Distance (km) Brightness Sun altitude
Exits shadow 04:38:21 42° 303° (WNW) 2,229 9.4 -26.9°
Maximum altitude 04:41:26 54° 350° (N) 1,942 9.3 -26.3°
Drops below altitude 10° 04:51:05 10° 67° (ENE) 3,846 11.8 -24.5°
Sets 04:54:17 0° 72° (ENE) 4,810 12.6 -23.8°
